Location: Newark
(45.0500°N, 41.9667°E)
Time: 19:37:23
(UTC+00:00)

Starlink (trailer) - Pass Details

Date: 27 July 2019
Orbit: 549 x 550 km, 53.0° (Epoch: 16 August)

Event Time Altitude Azimuth Distance (km) Brightness Sun altitude
Exits shadow 20:52:10 49° 311° (NW) 710 4.3 -25.5°
Maximum altitude 20:52:35 52° 334° (NNW) 688 4.3 -25.6°
Drops below altitude 10° 20:56:39 10° 52° (NE) 1,827 6.6 -25.6°
Sets 20:58:57 0° 58° (ENE) 2,723 7.5 -25.7°
